Location: Unspecified
(48.2082°N, 0.0000°E)
Time: 07:22:49
(UTC+00:00)

S-56A Canister/Altair - Visible Passes

Search period start: 14 August 2020 00:00
Search period end: 24 August 2020 00:00
Orbit: 633 x 2499 km, 38.9° (Epoch: 13 August)

Date Brightness Start Highest point End Pass type
(mag) Time Alt. Az. Time Alt. Az. Time Alt. Az.
14 Aug 9.9 04:13:59 10° S 04:17:47 17° SE 04:22:24 10° ESE visible
15 Aug 9.9 03:42:32 10° SSE 03:45:17 14° SE 03:48:29 10° ESE visible
16 Aug 9.9 03:12:00 10° SE 03:12:51 10° SE 03:13:44 10° SE visible
18 Aug 9.3 04:05:42 10° SSW 04:09:58 25° SSE 04:15:28 10° ESE visible
19 Aug 9.3 03:34:14 12° SSW 03:37:28 21° SSE 03:42:06 10° ESE visible
20 Aug 9.2 03:03:19 15° S 03:05:00 17° SSE 03:08:45 10° ESE visible
21 Aug 9.4 02:32:23 14° SSE 02:32:33 14° SSE 02:35:21 10° ESE visible
22 Aug 9.7 02:01:27 10° SE 02:01:27 10° SE 02:01:44 10° SE visible
22 Aug 8.8 03:58:53 13° SW 04:02:33 30° SSE 04:08:05 10° ESE visible
23 Aug 8.7 03:27:57 20° SSW 03:30:03 27° SSE 03:34:57 10° ESE visible
